Date,TemperatureHighF,TemperatureAvgF,TemperatureLowF,DewpointHighF,DewpointAvgF,DewpointLowF,HumidityHigh,HumidityAvg,HumidityLow,PressureMaxIn,PressureMinIn,WindSpeedMaxMPH,WindSpeedAvgMPH,GustSpeedMaxMPH,PrecipitationSumIn
2013-1-1,61,53,48,52,48,44,91,83,62,30.16,29.96,18,3,18,0.00
2013-1-2,55,47,41,52,44,36,94,89,82,30.19,29.91,24,8,25,0.34
2013-1-3,43,41,34,38,36,31,90,82,74,30.26,30.13,27,7,27,0.07
2013-1-4,54,40,29,34,30,27,94,72,40,30.33,30.19,21,3,21,0.00
2013-1-5,53,39,26,36,29,22,87,68,39,30.40,30.25,14,3,14,0.00
2013-1-6,50,45,36,44,40,31,92,81,63,30.30,30.07,10,2,10,0.03
2013-1-7,54,45,38,44,37,34,92,73,54,30.46,30.13,28,7,28,0.00
2013-1-8,62,49,40,51,43,35,92,80,65,30.46,30.34,22,5,22,0.00
2013-1-9,70,56,42,57,51,40,95,83,63,30.44,30.36,10,2,10,0.00
2013-1-10,61,53,47,54,43,35,95,71,39,30.53,30.40,24,8,25,0.00
2013-1-11,73,58,48,61,53,40,95,83,64,30.45,30.14,19,5,19,0.11
2013-1-12,69,60,53,62,57,52,95,91,76,30.20,30.09,8,2,8,0.01
2013-1-13,70,62,55,62,58,54,96,89,73,30.19,29.94,8,3,8,0.00
2013-1-14,73,63,56,64,59,54,96,88,72,30.22,30.13,13,3,13,0.00
2013-1-15,68,57,52,60,55,51,96,91,75,30.20,30.07,9,3,0,0.15
2013-1-16,71,61,53,64,58,51,96,90,74,30.06,29.96,5,2,0,0.00
2013-1-17,71,55,42,63,53,41,96,92,75,29.99,29.80,17,4,0,0.00
2013-1-18,49,41,34,41,34,29,96,76,51,30.53,29.92,11,4,0,0.00
2013-1-19,60,45,32,47,38,28,93,77,59,30.50,30.18,6,2,0,0.00
2013-1-20,64,50,41,50,44,38,95,82,58,30.17,29.98,4,1,0,0.00
2013-1-21,65,52,37,51,43,34,88,74,57,30.07,29.87,6,2,0,0.00
2013-1-22,52,38,29,39,16,7,69,42,23,30.29,29.92,10,2,10,0.00
2013-1-23,44,33,27,32,14,3,78,49,25,30.39,30.14,12,4,12,0.00
2013-1-24,48,38,27,40,23,7,78,56,36,30.53,29.98,30,10,30,0.00
2013-1-25,41,31,23,32,22,8,95,71,45,30.53,30.09,16,6,16,0.20
2013-1-26,42,34,29,34,30,27,95,86,73,30.40,30.11,21,7,21,0.00
2013-1-27,44,35,29,37,29,21,99,80,47,30.58,30.38,26,7,26,0.03
2013-1-28,59,44,32,57,42,30,95,91,77,30.53,30.27,13,3,13,0.00
2013-1-29,78,60,51,70,55,48,95,86,65,30.27,30.13,10,2,10,0.02
2013-1-30,71,63,54,61,58,52,98,84,71,30.17,29.63,16,5,16,0.02
2013-1-31,66,54,43,61,38,23,90,57,28,30.08,29.50,20,7,20,0.26